Regional Weather Roundup
Issued by NWS

Home | Current Version | Previous Version | Graphics & Text | Print | Product List | Glossary On
Versions: 1 2 3 4 5 6 7 8 9 10 11 12 13 14 15 16 17 18 19 20 21 22 23 24 25 26 27 28 29 30 31 32 33 34 35 36 37 38 39 40 41 42 43 44 45 46 47 48 49 50
000
ASUS44 KMEG 200400
RWRTN
TENNESSEE HOURLY STATE WEATHER ROUNDUP
NATIONAL WEATHER SERVICE MEMPHIS TN
1000 PM CST FRI JAN 19 2018

TNZ002-004-019-021-049-052-054-088>092-200500-
WEST TENNESSEE

CITY           SKY/WX    TMP DP  RH WIND       PRES   REMARKS
MEMPHIS INTL   CLOUDY    43  20  39 S12       30.17S
NWS MEMPHIS      N/A     42 N/A N/A MISG        N/A
JACKSON        CLOUDY    41  21  44 S9        30.16S
DYERSBURG      CLOUDY    40  19  43 S8        30.15R WCI  34
$$

TNZ008-025-027-028-033-062-065-066-200500-
NORTH MIDDLE TENNESSEE

CITY           SKY/WX    TMP DP  RH WIND       PRES   REMARKS
NASHVILLE      CLOUDY    44  21  40 S13       30.17S
CLARKSVILLE    CLOUDY    41  21  44 S10       30.13S
SMYRNA         CLOUDY    40  22  48 S5        30.20S
CROSSVILLE     CLOUDY    36  17  46 VRB3      30.18S
$$

TNZ061-075-076-078-094-096-097-200500-
SOUTH MIDDLE TENNESSEE

CITY           SKY/WX    TMP DP  RH WIND       PRES   REMARKS
WINCHESTER     CLOUDY    41  18  38 CALM      30.23R
$$

TNZ017-018-042-046-047-200500-
NORTHEAST TENNESSEE

CITY           SKY/WX    TMP DP  RH WIND       PRES   REMARKS
TRI CITIES     FAIR      22  15  75 CALM      30.20S
$$

TNZ012-013-036-069-073-074-200500-
CENTRAL EAST TENNESSEE

CITY           SKY/WX    TMP DP  RH WIND       PRES   REMARKS
KNOXVILLE      FAIR      33  14  45 SW5       30.21R WCI  29
OAK RIDGE      FAIR      26  20  77 CALM      30.23R
$$

TNZ083-085-099-200500-
SOUTHEAST TENNESSEE

CITY           SKY/WX    TMP DP  RH WIND       PRES   REMARKS
CHATTANOOGA    MOCLDY    28  17  63 CALM      30.26R
$$

SKY/WX REPORTED AS FAIR MEANS FEW OR NO CLOUDS BELOW
12 THOUSAND FEET.





USA.gov is the U.S. government's official web portal to all federal, state and local government web resources and services.